| time (UTC) | temp F | wind direction | speed MPH | gust MPH | rain 1hr in | rain 24hr in | rain mn in | humidity % | barometer mb |
| 20260507124557 | 42 | 0 | 0.0 | 0.0 | 0.00 | 0.00 | 0.00 | 63 | 1013.4 |
| 20260507123050 | 41 | 0 | 0.0 | 1.0 | 0.00 | 0.00 | 0.00 | 67 | 1013.5 |
| 20260507121555 | 39 | 0 | 0.0 | 1.0 | 0.00 | 0.00 | 0.00 | 70 | 1013.2 |
| 20260507120053 | 37 | 0 | 0.0 | 0.0 | 0.00 | 0.00 | 0.00 | 73 | 1013.3 |
| 20260507114551 | 36 | 0 | 0.0 | 1.0 | 0.00 | 0.00 | 0.00 | 75 | 1013.2 |
| 20260507113052 | 35 | 0 | 0.0 | 0.0 | 0.00 | 0.00 | 0.00 | 76 | 1013.1 |
| 20260507111551 | 35 | 0 | 0.0 | 0.0 | 0.00 | 0.00 | 0.00 | 76 | 1013.2 |
| 20260507110059 | 35 | 0 | 0.0 | 0.0 | 0.00 | 0.00 | 0.00 | 76 | 1013.2 |
| 20260507104600 | 34 | 0 | 0.0 | 0.0 | 0.00 | 0.00 | 0.00 | 77 | 1013.1 |
| 20260507103117 | 34 | 0 | 0.0 | 0.0 | 0.00 | 0.00 | 0.00 | 76 | 1013.1 |
| 20260507101551 | 35 | 0 | 0.0 | 0.0 | 0.00 | 0.00 | 0.00 | 76 | 1013.1 |
| 20260507100106 | 35 | 0 | 0.0 | 0.0 | 0.00 | 0.00 | 0.00 | 76 | 1013.2 |
| 20260507094553 | 35 | 0 | 0.0 | 0.0 | 0.00 | 0.00 | 0.00 | 75 | 1013.3 |
| 20260507093052 | 35 | 0 | 0.0 | 0.0 | 0.00 | 0.00 | 0.00 | 75 | 1013.2 |
| 20260507091557 | 35 | 0 | 0.0 | 0.0 | 0.00 | 0.00 | 0.00 | 75 | 1013.3 |
| 20260507090059 | 35 | 0 | 0.0 | 0.0 | 0.00 | 0.00 | 0.00 | 74 | 1013.3 |
| 20260507084604 | 36 | 0 | 0.0 | 0.0 | 0.00 | 0.00 | 0.00 | 73 | 1013.3 |
| 20260507083057 | 36 | 0 | 0.0 | 0.0 | 0.00 | 0.00 | 0.00 | 73 | 1013.4 |
| 20260507081559 | 37 | 0 | 0.0 | 0.0 | 0.00 | 0.00 | 0.00 | 72 | 1013.2 |
| 20260507080056 | 37 | 0 | 0.0 | 1.0 | 0.00 | 0.00 | 0.00 | 71 | 1013.2 |
| 20260507074605 | 37 | 0 | 0.0 | 0.0 | 0.00 | 0.00 | 0.00 | 71 | 1013.1 |
| 20260507073052 | 37 | 0 | 0.0 | 0.0 | 0.00 | 0.00 | 0.00 | 71 | 1013.2 |
| 20260507071605 | 38 | 0 | 0.0 | 0.0 | 0.00 | 0.00 | 0.00 | 70 | 1013.3 |
| 20260507070104 | 38 | 0 | 0.0 | 0.0 | 0.00 | 0.00 | 0.00 | 70 | 1013.5 |
| 20260507064557 | 38 | 0 | 0.0 | 1.0 | 0.00 | 0.00 | 0.00 | 69 | 1013.4 |
| 20260507063057 | 39 | 0 | 0.0 | 0.0 | 0.00 | 0.00 | 0.00 | 68 | 1013.5 |
| 20260507061554 | 39 | 0 | 0.0 | 0.0 | 0.00 | 0.00 | 0.00 | 67 | 1013.5 |
| 20260507054609 | 40 | 0 | 0.0 | 0.0 | 0.00 | 0.00 | 0.00 | 64 | 1013.6 |
| 20260507053107 | 40 | 0 | 0.0 | 0.0 | 0.00 | 0.00 | 0.00 | 62 | 1013.6 |
| 20260507051559 | 41 | 0 | 0.0 | 0.0 | 0.00 | 0.00 | 0.00 | 60 | 1013.6 |
| 20260507050100 | 42 | 0 | 0.0 | 0.0 | 0.00 | 0.00 | 0.00 | 59 | 1013.7 |
| 20260507044559 | 42 | 0 | 0.0 | 0.0 | 0.00 | 0.00 | 0.00 | 57 | 1013.6 |
| 20260507043054 | 43 | 0 | 0.0 | 1.0 | 0.00 | 0.00 | 0.00 | 56 | 1013.7 |
| 20260507041602 | 43 | 0 | 0.0 | 1.0 | 0.00 | 0.00 | 0.00 | 55 | 1013.6 |
| 20260507040054 | 44 | 0 | 0.0 | 1.0 | 0.00 | 0.00 | 0.00 | 54 | 1013.6 |
| 20260507034600 | 44 | 0 | 0.0 | 1.0 | 0.00 | 0.00 | 0.00 | 53 | 1013.6 |
| 20260507033055 | 45 | 0 | 0.0 | 1.0 | 0.00 | 0.00 | 0.00 | 52 | 1013.7 |
| 20260507031552 | 45 | 259 | 0.0 | 2.0 | 0.00 | 0.00 | 0.00 | 51 | 1013.7 |
| 20260507030056 | 45 | 0 | 0.0 | 1.0 | 0.00 | 0.00 | 0.00 | 50 | 1013.6 |
| 20260507024554 | 46 | 281 | 0.0 | 1.0 | 0.00 | 0.00 | 0.00 | 49 | 1013.6 |
| 20260507023052 | 47 | 0 | 0.0 | 2.0 | 0.00 | 0.00 | 0.00 | 48 | 1013.4 |
| 20260507021611 | 47 | 0 | 1.0 | 6.0 | 0.00 | 0.00 | 0.00 | 46 | 1013.1 |
| 20260507020109 | 48 | 0 | 1.0 | 5.0 | 0.00 | 0.00 | 0.00 | 45 | 1012.9 |
| 20260507014620 | 48 | 261 | 0.0 | 6.0 | 0.00 | 0.00 | 0.00 | 44 | 1012.8 |
| 20260507013053 | 49 | 279 | 1.0 | 7.0 | 0.00 | 0.00 | 0.00 | 44 | 1012.8 |
| 20260507011558 | 49 | 293 | 0.0 | 9.0 | 0.00 | 0.00 | 0.00 | 44 | 1012.7 |
| 20260507010052 | 50 | 286 | 1.0 | 9.0 | 0.00 | 0.00 | 0.00 | 43 | 1012.7 |
| 20260507004554 | 51 | 40 | 1.0 | 9.0 | 0.00 | 0.00 | 0.00 | 43 | 1012.7 |
| 20260507003051 | 51 | 269 | 0.0 | 7.0 | 0.00 | 0.00 | 0.00 | 42 | 1012.5 |
| 20260507001601 | 52 | 294 | 1.0 | 10.0 | 0.00 | 0.00 | 0.00 | 41 | 1012.3 |
| 20260507000121 | 52 | 316 | 1.0 | 5.0 | 0.00 | 0.00 | 0.00 | 41 | 1012.0 |
| 20260506234613 | 53 | 341 | 2.0 | 11.0 | 0.00 | 0.00 | 0.00 | 40 | 1012.0 |
| 20260506233057 | 54 | 305 | 3.0 | 9.0 | 0.00 | 0.00 | 0.00 | 40 | 1011.7 |
| 20260506231555 | 54 | 293 | 1.0 | 8.0 | 0.00 | 0.00 | 0.00 | 39 | 1011.8 |
| 20260506224555 | 55 | 309 | 2.0 | 10.0 | 0.00 | 0.00 | 0.00 | 38 | 1011.5 |
| 20260506223052 | 55 | 275 | 2.0 | 10.0 | 0.00 | 0.00 | 0.00 | 39 | 1011.4 |
| 20260506221602 | 56 | 302 | 1.0 | 9.0 | 0.00 | 0.00 | 0.00 | 38 | 1011.5 |
| 20260506220052 | 57 | 290 | 3.0 | 9.0 | 0.00 | 0.00 | 0.00 | 36 | 1011.2 |
| 20260506214551 | 57 | 41 | 2.0 | 9.0 | 0.00 | 0.00 | 0.00 | 37 | 1011.0 |
| 20260506213055 | 56 | 299 | 1.0 | 6.0 | 0.00 | 0.00 | 0.00 | 38 | 1010.9 |
| 20260506211555 | 57 | 306 | 3.0 | 9.0 | 0.00 | 0.00 | 0.00 | 36 | 1011.0 |
| 20260506210054 | 56 | 266 | 2.0 | 10.0 | 0.00 | 0.00 | 0.00 | 35 | 1011.1 |
| 20260506204552 | 56 | 264 | 2.0 | 9.0 | 0.00 | 0.00 | 0.00 | 34 | 1011.0 |
| 20260506203052 | 57 | 326 | 2.0 | 12.0 | 0.00 | 0.00 | 0.00 | 33 | 1011.1 |
| 20260506201551 | 57 | 359 | 1.0 | 6.0 | 0.00 | 0.00 | 0.00 | 34 | 1011.3 |
| 20260506200051 | 56 | 0 | 2.0 | 6.0 | 0.00 | 0.00 | 0.00 | 36 | 1011.4 |
| 20260506194550 | 56 | 244 | 1.0 | 8.0 | 0.00 | 0.00 | 0.00 | 36 | 1011.6 |
| 20260506193056 | 56 | 301 | 1.0 | 10.0 | 0.00 | 0.00 | 0.00 | 38 | 1011.8 |
| 20260506191559 | 55 | 271 | 2.0 | 9.0 | 0.00 | 0.00 | 0.00 | 39 | 1011.8 |
| 20260506190054 | 55 | 338 | 2.0 | 5.0 | 0.00 | 0.00 | 0.00 | 38 | 1011.8 |
| 20260506184558 | 56 | 285 | 1.0 | 6.0 | 0.00 | 0.00 | 0.00 | 39 | 1011.9 |
| 20260506183101 | 55 | 297 | 4.0 | 12.0 | 0.00 | 0.00 | 0.00 | 38 | 1011.8 |
| 20260506181607 | 55 | 262 | 2.0 | 8.0 | 0.00 | 0.00 | 0.00 | 38 | 1011.7 |
| 20260506180057 | 56 | 355 | 1.0 | 7.0 | 0.00 | 0.00 | 0.00 | 39 | 1011.7 |
| 20260506174552 | 55 | 297 | 3.0 | 10.0 | 0.00 | 0.00 | 0.00 | 37 | 1011.8 |
| 20260506173123 | 56 | 253 | 2.0 | 7.0 | 0.00 | 0.00 | 0.00 | 38 | 1011.8 |
| 20260506171558 | 55 | 316 | 2.0 | 11.0 | 0.00 | 0.00 | 0.00 | 38 | 1011.9 |
| 20260506170109 | 55 | 273 | 1.0 | 7.0 | 0.00 | 0.00 | 0.00 | 39 | 1011.9 |
| 20260506164556 | 55 | 345 | 1.0 | 7.0 | 0.00 | 0.00 | 0.00 | 38 | 1011.9 |
| 20260506163059 | 56 | 326 | 0.0 | 7.0 | 0.00 | 0.00 | 0.00 | 36 | 1011.8 |
| 20260506161551 | 55 | 0 | 1.0 | 8.0 | 0.00 | 0.00 | 0.00 | 39 | 1011.8 |
| 20260506160052 | 54 | 274 | 0.0 | 5.0 | 0.00 | 0.00 | 0.00 | 36 | 1011.8 |
| 20260506154609 | 53 | 277 | 1.0 | 10.0 | 0.00 | 0.00 | 0.00 | 37 | 1011.8 |
| 20260506153053 | 53 | 292 | 0.0 | 6.0 | 0.00 | 0.00 | 0.00 | 38 | 1011.7 |
| 20260506151611 | 53 | 237 | 1.0 | 4.0 | 0.00 | 0.00 | 0.00 | 36 | 1011.9 |
| 20260506150059 | 52 | 44 | 1.0 | 8.0 | 0.00 | 0.00 | 0.00 | 38 | 1011.8 |
| 20260506144604 | 53 | 296 | 1.0 | 4.0 | 0.00 | 0.00 | 0.00 | 38 | 1012.0 |
| 20260506143101 | 52 | 250 | 1.0 | 7.0 | 0.00 | 0.00 | 0.00 | 38 | 1012.0 |
| 20260506141603 | 51 | 0 | 0.0 | 2.0 | 0.00 | 0.00 | 0.00 | 42 | 1012.0 |
| 20260506140101 | 51 | 0 | 0.0 | 1.0 | 0.00 | 0.00 | 0.00 | 45 | 1011.9 |
| 20260506134556 | 49 | 0 | 0.0 | 1.0 | 0.00 | 0.05 | 0.00 | 47 | 1011.7 |
| 20260506133127 | 49 | 0 | 0.0 | 1.0 | 0.00 | 0.05 | 0.00 | 50 | 1011.4 |
| 20260506131555 | 48 | 360 | 0.0 | 0.0 | 0.00 | 0.05 | 0.00 | 55 | 1011.2 |
| 20260506130121 | 47 | 0 | 0.0 | 0.0 | 0.00 | 0.05 | 0.00 | 60 | 1011.4 |